Time,TemperatureF,DewpointF,PressureIn,WindDirection,WindDirectionDegrees,WindSpeedMPH,WindSpeedGustMPH,Humidity,HourlyPrecipIn,Conditions,Clouds,dailyrainin,SoftwareType,DateUTC
2013-09-19 00:02:00,43.6,0.0,30.04,SSE,158,0.0,0.0,0,0.00,,,0.00,WUHU216HW,2013-09-19 04:02:00,
2013-09-19 00:07:00,43.4,0.0,30.03,SSE,158,0.0,0.0,0,0.00,,,0.00,WUHU216HW,2013-09-19 04:07:00,
2013-09-19 00:12:00,43.2,0.0,30.03,SSE,158,0.0,0.0,0,0.00,,,0.00,WUHU216HW,2013-09-19 04:12:00,
2013-09-19 00:17:00,43.0,0.0,30.03,SSE,158,0.0,0.0,0,0.00,,,0.00,WUHU216HW,2013-09-19 04:17:00,
2013-09-19 00:22:00,42.8,0.0,30.03,SSE,158,0.0,0.0,0,0.00,,,0.00,WUHU216HW,2013-09-19 04:22:00,
2013-09-19 00:27:00,42.8,0.0,30.03,SSE,158,0.0,0.0,0,0.00,,,0.00,WUHU216HW,2013-09-19 04:27:00,
2013-09-19 00:32:00,42.8,0.0,30.03,SSE,158,0.0,0.0,0,0.00,,,0.00,WUHU216HW,2013-09-19 04:32:00,
2013-09-19 00:37:00,42.8,0.0,30.03,SSE,158,0.0,0.0,0,0.00,,,0.00,WUHU216HW,2013-09-19 04:37:00,
2013-09-19 00:42:00,42.7,0.0,30.03,SSE,158,0.0,0.0,0,0.00,,,0.00,WUHU216HW,2013-09-19 04:42:00,
2013-09-19 00:47:00,42.5,0.0,30.03,SSE,158,0.0,0.0,0,0.00,,,0.00,WUHU216HW,2013-09-19 04:47:00,
2013-09-19 00:52:00,42.3,0.0,30.03,SSE,158,0.0,0.0,0,0.00,,,0.00,WUHU216HW,2013-09-19 04:52:00,
2013-09-19 00:57:00,42.1,0.0,30.03,SSE,158,0.0,0.0,0,0.00,,,0.00,WUHU216HW,2013-09-19 04:57:00,
2013-09-19 01:02:00,42.1,0.0,30.03,SSE,158,0.0,0.0,0,0.00,,,0.00,WUHU216HW,2013-09-19 05:02:00,
2013-09-19 01:07:00,42.1,0.0,30.03,SSE,158,0.0,0.0,0,0.00,,,0.00,WUHU216HW,2013-09-19 05:07:00,
2013-09-19 01:12:00,41.9,0.0,30.03,SSE,158,0.0,0.0,0,0.00,,,0.00,WUHU216HW,2013-09-19 05:12:00,
2013-09-19 01:17:00,41.9,0.0,30.03,SSE,158,0.0,0.0,0,0.00,,,0.00,WUHU216HW,2013-09-19 05:17:00,
2013-09-19 01:22:00,41.8,0.0,30.03,SSE,158,0.0,0.0,0,0.00,,,0.00,WUHU216HW,2013-09-19 05:22:00,
2013-09-19 01:27:00,41.6,0.0,30.03,SSE,158,0.0,0.0,0,0.00,,,0.00,WUHU216HW,2013-09-19 05:27:00,
2013-09-19 01:32:00,41.6,0.0,30.03,SSE,158,0.0,0.0,0,0.00,,,0.00,WUHU216HW,2013-09-19 05:32:00,
2013-09-19 01:37:00,41.4,0.0,30.03,SSE,158,0.0,0.0,0,0.00,,,0.00,WUHU216HW,2013-09-19 05:37:00,
2013-09-19 01:42:00,41.4,0.0,30.03,SSE,158,0.0,0.0,0,0.00,,,0.00,WUHU216HW,2013-09-19 05:42:00,
2013-09-19 01:47:00,41.6,0.0,30.03,SSE,158,0.0,0.0,0,0.00,,,0.00,WUHU216HW,2013-09-19 05:47:00,
2013-09-19 01:52:00,41.6,0.0,30.03,SSE,158,0.0,0.0,0,0.00,,,0.00,WUHU216HW,2013-09-19 05:52:00,
2013-09-19 01:57:00,41.8,0.0,30.02,SSE,158,0.0,0.0,0,0.00,,,0.00,WUHU216HW,2013-09-19 05:57:00,
2013-09-19 02:02:00,41.8,0.0,30.02,SSE,158,0.0,0.0,0,0.00,,,0.00,WUHU216HW,2013-09-19 06:02:00,
2013-09-19 02:07:00,41.8,0.0,30.02,SSE,158,0.0,0.0,0,0.00,,,0.00,WUHU216HW,2013-09-19 06:07:00,
2013-09-19 02:12:00,41.8,0.0,30.02,SSE,158,0.0,0.0,0,0.00,,,0.00,WUHU216HW,2013-09-19 06:12:00,
2013-09-19 02:17:00,41.8,0.0,30.02,SSE,158,0.0,0.0,0,0.00,,,0.00,WUHU216HW,2013-09-19 06:17:00,
2013-09-19 02:22:00,41.6,0.0,30.02,SSE,158,0.0,0.0,0,0.00,,,0.00,WUHU216HW,2013-09-19 06:22:00,
2013-09-19 02:27:00,41.9,0.0,30.01,SSE,158,0.0,0.0,0,0.00,,,0.00,WUHU216HW,2013-09-19 06:27:00,
2013-09-19 02:32:00,41.9,0.0,30.01,SSE,158,0.0,0.0,0,0.00,,,0.00,WUHU216HW,2013-09-19 06:32:00,
2013-09-19 02:37:00,41.8,0.0,30.01,SSE,158,0.0,0.0,0,0.00,,,0.00,WUHU216HW,2013-09-19 06:37:00,
2013-09-19 02:42:00,41.6,0.0,30.01,SSE,158,0.0,0.0,0,0.00,,,0.00,WUHU216HW,2013-09-19 06:42:00,
2013-09-19 02:47:00,41.6,0.0,30.01,SSE,158,0.0,0.0,0,0.00,,,0.00,WUHU216HW,2013-09-19 06:47:00,
2013-09-19 02:52:00,41.8,0.0,30.01,SSE,158,0.0,0.0,0,0.00,,,0.00,WUHU216HW,2013-09-19 06:52:00,
2013-09-19 02:57:00,41.6,0.0,30.01,SSE,158,0.0,0.0,0,0.00,,,0.00,WUHU216HW,2013-09-19 06:57:00,
2013-09-19 03:02:00,41.4,0.0,30.01,SSE,158,0.0,0.0,0,0.00,,,0.00,WUHU216HW,2013-09-19 07:02:00,
2013-09-19 03:07:00,41.4,0.0,30.00,SSE,158,0.0,0.0,0,0.00,,,0.00,WUHU216HW,2013-09-19 07:07:00,
2013-09-19 03:12:00,41.2,0.0,30.01,SSE,158,0.0,0.0,0,0.00,,,0.00,WUHU216HW,2013-09-19 07:12:00,
2013-09-19 03:17:00,41.2,0.0,30.01,SSE,158,0.0,0.0,0,0.00,,,0.00,WUHU216HW,2013-09-19 07:17:00,
2013-09-19 03:22:00,41.4,0.0,30.00,SSE,158,0.0,0.0,0,0.00,,,0.00,WUHU216HW,2013-09-19 07:22:00,
2013-09-19 03:27:00,41.2,0.0,30.00,SSE,158,0.0,0.0,0,0.00,,,0.00,WUHU216HW,2013-09-19 07:27:00,
2013-09-19 03:32:00,41.2,0.0,30.00,SSE,158,0.0,0.0,0,0.00,,,0.00,WUHU216HW,2013-09-19 07:32:00,
2013-09-19 03:37:00,41.4,0.0,30.00,SSE,158,0.0,0.0,0,0.00,,,0.00,WUHU216HW,2013-09-19 07:37:00,
2013-09-19 03:42:00,41.2,0.0,30.00,SSE,158,0.0,0.0,0,0.00,,,0.00,WUHU216HW,2013-09-19 07:42:00,
2013-09-19 03:47:00,41.2,0.0,30.00,SSE,158,0.0,0.7,0,0.00,,,0.00,WUHU216HW,2013-09-19 07:47:00,
2013-09-19 03:52:00,41.2,0.0,30.00,SSE,158,0.0,0.7,0,0.00,,,0.00,WUHU216HW,2013-09-19 07:52:00,
2013-09-19 03:57:00,41.2,0.0,30.00,SSE,158,0.2,0.2,0,0.00,,,0.00,WUHU216HW,2013-09-19 07:57:00,
2013-09-19 04:02:00,41.2,0.0,30.00,SSE,158,0.4,0.4,0,0.00,,,0.00,WUHU216HW,2013-09-19 08:02:00,
2013-09-19 04:07:00,41.4,0.0,30.00,SSE,158,0.0,0.4,0,0.00,,,0.00,WUHU216HW,2013-09-19 08:07:00,
2013-09-19 04:12:00,41.4,0.0,30.00,SSE,158,0.0,0.4,0,0.00,,,0.00,WUHU216HW,2013-09-19 08:12:00,
2013-09-19 04:17:00,41.4,0.0,30.00,SSE,158,0.0,0.0,0,0.00,,,0.00,WUHU216HW,2013-09-19 08:17:00,
2013-09-19 04:22:00,41.4,0.0,30.00,SSE,158,0.0,0.0,0,0.00,,,0.00,WUHU216HW,2013-09-19 08:22:00,
2013-09-19 04:27:00,41.4,0.0,30.00,SSE,158,0.0,0.0,0,0.00,,,0.00,WUHU216HW,2013-09-19 08:27:00,
2013-09-19 04:32:00,41.4,0.0,30.00,SSE,158,0.0,0.0,0,0.00,,,0.00,WUHU216HW,2013-09-19 08:32:00,
2013-09-19 04:37:00,41.6,0.0,30.00,SSE,158,0.9,0.9,0,0.00,,,0.00,WUHU216HW,2013-09-19 08:37:00,
2013-09-19 04:42:00,41.6,0.0,30.00,SSE,158,0.2,0.9,0,0.00,,,0.00,WUHU216HW,2013-09-19 08:42:00,
2013-09-19 04:47:00,41.6,0.0,30.00,SSE,158,0.4,0.4,0,0.00,,,0.00,WUHU216HW,2013-09-19 08:47:00,
2013-09-19 04:53:00,41.6,0.0,30.00,SSE,158,0.0,0.4,0,0.00,,,0.00,WUHU216HW,2013-09-19 08:53:00,
2013-09-19 04:58:00,41.6,0.0,30.00,SSE,158,0.0,0.4,0,0.00,,,0.00,WUHU216HW,2013-09-19 08:58:00,
2013-09-19 05:03:00,41.6,0.0,30.00,SSE,158,0.0,0.4,0,0.00,,,0.00,WUHU216HW,2013-09-19 09:03:00,
2013-09-19 05:08:00,41.8,0.0,30.00,SSE,158,0.0,0.4,0,0.00,,,0.00,WUHU216HW,2013-09-19 09:08:00,
2013-09-19 05:13:00,41.6,0.0,30.00,SSE,158,0.0,0.0,0,0.00,,,0.00,WUHU216HW,2013-09-19 09:13:00,
2013-09-19 05:18:00,41.9,0.0,30.00,SSE,158,0.0,0.0,0,0.00,,,0.00,WUHU216HW,2013-09-19 09:18:00,
2013-09-19 05:23:00,42.3,0.0,30.00,SSE,158,0.0,0.0,0,0.00,,,0.00,WUHU216HW,2013-09-19 09:23:00,
2013-09-19 05:28:00,42.7,0.0,30.00,SSE,158,0.0,0.9,0,0.00,,,0.00,WUHU216HW,2013-09-19 09:28:00,
2013-09-19 05:33:00,42.5,0.0,30.00,SSE,158,0.0,0.9,0,0.00,,,0.00,WUHU216HW,2013-09-19 09:33:00,
2013-09-19 05:38:00,42.5,0.0,30.00,SSE,158,0.0,0.4,0,0.00,,,0.00,WUHU216HW,2013-09-19 09:38:00,
2013-09-19 05:43:00,42.3,0.0,30.00,SSE,158,0.0,0.4,0,0.00,,,0.00,WUHU216HW,2013-09-19 09:43:00,
2013-09-19 05:48:00,42.1,0.0,30.00,SSE,158,0.0,0.2,0,0.00,,,0.00,WUHU216HW,2013-09-19 09:48:00,
2013-09-19 05:53:00,42.1,0.0,30.00,SSE,158,0.0,0.7,0,0.00,,,0.00,WUHU216HW,2013-09-19 09:53:00,
2013-09-19 05:58:00,42.1,0.0,30.00,SSE,158,0.0,0.7,0,0.00,,,0.00,WUHU216HW,2013-09-19 09:58:00,
2013-09-19 06:03:00,42.1,0.0,30.00,SSE,158,0.0,0.4,0,0.00,,,0.00,WUHU216HW,2013-09-19 10:03:00,
2013-09-19 06:08:00,42.1,0.0,30.00,SSE,158,0.0,0.4,0,0.00,,,0.00,WUHU216HW,2013-09-19 10:08:00,
2013-09-19 06:13:00,42.1,0.0,30.00,SSE,158,0.0,0.4,0,0.00,,,0.00,WUHU216HW,2013-09-19 10:13:00,
2013-09-19 06:18:00,42.3,0.0,30.00,SSE,158,0.0,0.4,0,0.00,,,0.00,WUHU216HW,2013-09-19 10:18:00,
2013-09-19 06:23:00,42.3,0.0,30.00,SSE,158,0.4,0.4,0,0.00,,,0.00,WUHU216HW,2013-09-19 10:23:00,
2013-09-19 06:28:00,42.5,0.0,30.00,SSE,158,0.0,0.4,0,0.00,,,0.00,WUHU216HW,2013-09-19 10:28:00,
2013-09-19 06:33:00,42.5,0.0,30.00,SSE,158,0.0,0.4,0,0.00,,,0.00,WUHU216HW,2013-09-19 10:33:00,
2013-09-19 06:38:00,42.5,0.0,30.00,SSE,158,0.0,0.4,0,0.00,,,0.00,WUHU216HW,2013-09-19 10:38:00,
2013-09-19 06:43:00,42.5,0.0,30.00,SSE,158,0.7,0.7,0,0.00,,,0.00,WUHU216HW,2013-09-19 10:43:00,
2013-09-19 06:48:00,42.5,0.0,30.00,SSE,158,0.0,0.7,0,0.00,,,0.00,WUHU216HW,2013-09-19 10:48:00,
2013-09-19 06:53:00,42.5,0.0,30.01,SSE,158,0.0,0.0,0,0.00,,,0.00,WUHU216HW,2013-09-19 10:53:00,
2013-09-19 06:58:00,42.7,0.0,30.01,SSE,158,0.0,0.0,0,0.00,,,0.00,WUHU216HW,2013-09-19 10:58:00,
2013-09-19 07:03:00,42.5,0.0,30.01,SSE,158,0.0,0.0,0,0.00,,,0.00,WUHU216HW,2013-09-19 11:03:00,
2013-09-19 07:08:00,42.3,0.0,30.01,SSE,158,0.0,0.4,0,0.00,,,0.00,WUHU216HW,2013-09-19 11:08:00,
2013-09-19 07:13:00,42.5,0.0,30.01,SSE,158,0.0,0.4,0,0.00,,,0.00,WUHU216HW,2013-09-19 11:13:00,
2013-09-19 07:18:00,42.8,0.0,30.00,SSE,158,0.0,0.0,0,0.00,,,0.00,WUHU216HW,2013-09-19 11:18:00,
2013-09-19 07:23:00,43.0,0.0,30.00,SSE,158,0.0,0.0,0,0.00,,,0.00,WUHU216HW,2013-09-19 11:23:00,
2013-09-19 07:28:00,43.2,0.0,30.00,SSE,158,0.0,0.0,0,0.00,,,0.00,WUHU216HW,2013-09-19 11:28:00,
2013-09-19 07:33:00,43.6,0.0,30.00,SSE,158,0.0,0.0,0,0.00,,,0.00,WUHU216HW,2013-09-19 11:33:00,
2013-09-19 07:38:00,43.9,0.0,30.00,SSE,158,0.0,0.0,0,0.00,,,0.00,WUHU216HW,2013-09-19 11:38:00,
2013-09-19 07:43:00,44.3,0.0,30.00,SSE,158,0.0,0.0,0,0.00,,,0.00,WUHU216HW,2013-09-19 11:43:00,
2013-09-19 07:48:00,44.6,0.0,30.00,SSE,158,0.0,0.0,0,0.00,,,0.00,WUHU216HW,2013-09-19 11:48:00,
2013-09-19 07:53:00,45.4,0.0,30.00,SSE,158,0.0,0.0,0,0.00,,,0.00,WUHU216HW,2013-09-19 11:53:00,
2013-09-19 07:58:00,45.7,0.0,30.00,SSE,158,0.0,0.0,0,0.00,,,0.00,WUHU216HW,2013-09-19 11:58:00,
2013-09-19 08:03:00,46.1,0.0,30.00,SSE,158,0.0,0.0,0,0.00,,,0.00,WUHU216HW,2013-09-19 12:03:00,
2013-09-19 08:08:00,46.6,0.0,30.00,SSE,158,0.0,0.0,0,0.00,,,0.00,WUHU216HW,2013-09-19 12:08:00,
2013-09-19 08:13:00,47.2,0.0,30.01,SSE,158,0.4,0.4,0,0.00,,,0.00,WUHU216HW,2013-09-19 12:13:00,
2013-09-19 08:18:00,47.7,0.0,30.00,South,180,1.1,1.1,0,0.00,,,0.00,WUHU216HW,2013-09-19 12:18:00,
2013-09-19 08:23:00,48.4,0.0,30.00,SSE,158,1.1,1.1,0,0.00,,,0.00,WUHU216HW,2013-09-19 12:23:00,
2013-09-19 08:28:00,49.1,0.0,30.00,SSE,158,1.3,1.8,0,0.00,,,0.00,WUHU216HW,2013-09-19 12:28:00,
2013-09-19 08:33:00,50.0,0.0,30.00,South,180,0.4,1.8,0,0.00,,,0.00,WUHU216HW,2013-09-19 12:33:00,
2013-09-19 08:38:00,51.5,0.0,30.00,SSE,158,0.7,1.8,0,0.00,,,0.00,WUHU216HW,2013-09-19 12:38:00,
2013-09-19 08:43:00,52.6,0.0,30.00,South,180,0.9,1.8,0,0.00,,,0.00,WUHU216HW,2013-09-19 12:43:00,
2013-09-19 08:48:00,53.6,0.0,30.00,South,180,1.1,1.8,0,0.00,,,0.00,WUHU216HW,2013-09-19 12:48:00,
2013-09-19 08:53:00,54.7,0.0,30.00,South,180,0.9,1.8,0,0.00,,,0.00,WUHU216HW,2013-09-19 12:53:00,
2013-09-19 08:58:00,55.4,0.0,30.00,South,180,0.7,1.3,0,0.00,,,0.00,WUHU216HW,2013-09-19 12:58:00,
2013-09-19 09:03:00,56.0,0.0,30.00,South,180,1.3,1.3,0,0.00,,,0.00,WUHU216HW,2013-09-19 13:03:00,
2013-09-19 09:08:00,56.9,0.0,30.00,SSW,203,0.0,1.3,0,0.00,,,0.00,WUHU216HW,2013-09-19 13:08:00,
2013-09-19 09:13:00,57.6,0.0,30.00,SSW,203,0.9,1.6,0,0.00,,,0.00,WUHU216HW,2013-09-19 13:13:00,
2013-09-19 09:18:00,58.5,0.0,30.00,SSW,203,0.7,1.6,0,0.00,,,0.00,WUHU216HW,2013-09-19 13:18:00,
2013-09-19 09:23:00,59.6,0.0,30.00,South,180,1.1,1.6,0,0.00,,,0.00,WUHU216HW,2013-09-19 13:23:00,
2013-09-19 09:28:00,60.5,0.0,30.00,SSW,203,1.6,1.6,0,0.00,,,0.00,WUHU216HW,2013-09-19 13:28:00,
2013-09-19 09:33:00,61.6,0.0,30.01,SW,225,0.7,1.6,0,0.00,,,0.00,WUHU216HW,2013-09-19 13:33:00,
2013-09-19 09:38:00,62.3,0.0,30.00,SSE,158,1.6,1.6,0,0.00,,,0.00,WUHU216HW,2013-09-19 13:38:00,
2013-09-19 09:43:00,63.0,0.0,30.01,SSW,203,1.1,1.6,0,0.00,,,0.00,WUHU216HW,2013-09-19 13:43:00,
2013-09-19 09:48:00,63.5,0.0,30.00,WSW,248,2.0,2.0,0,0.00,,,0.00,WUHU216HW,2013-09-19 13:48:00,
2013-09-19 09:53:00,64.3,0.0,30.00,SW,225,1.1,2.2,0,0.00,,,0.00,WUHU216HW,2013-09-19 13:53:00,
2013-09-19 09:58:00,64.8,0.0,30.01,SW,225,0.9,2.2,0,0.00,,,0.00,WUHU216HW,2013-09-19 13:58:00,
2013-09-19 10:03:00,65.5,0.0,30.00,South,180,1.3,1.8,0,0.00,,,0.00,WUHU216HW,2013-09-19 14:03:00,
2013-09-19 10:08:00,66.1,0.0,30.01,SW,225,1.1,2.2,0,0.00,,,0.00,WUHU216HW,2013-09-19 14:08:00,
2013-09-19 10:13:00,66.6,0.0,30.01,SW,225,0.9,2.2,0,0.00,,,0.00,WUHU216HW,2013-09-19 14:13:00,
2013-09-19 10:18:00,67.1,0.0,30.01,SSE,158,1.1,2.2,0,0.00,,,0.00,WUHU216HW,2013-09-19 14:18:00,
2013-09-19 10:23:00,67.9,0.0,30.01,SSW,203,2.5,2.5,0,0.00,,,0.00,WUHU216HW,2013-09-19 14:23:00,
2013-09-19 10:28:00,68.4,0.0,30.01,SSW,203,1.1,2.5,0,0.00,,,0.00,WUHU216HW,2013-09-19 14:28:00,
2013-09-19 10:33:00,68.9,0.0,30.01,SSW,203,0.0,2.2,0,0.00,,,0.00,WUHU216HW,2013-09-19 14:33:00,
2013-09-19 10:38:00,69.1,0.0,30.01,ESE,113,0.9,2.2,0,0.00,,,0.00,WUHU216HW,2013-09-19 14:38:00,
2013-09-19 10:43:00,69.5,0.0,30.01,SW,225,0.0,2.2,0,0.00,,,0.00,WUHU216HW,2013-09-19 14:43:00,
2013-09-19 10:48:00,69.5,0.0,30.00,SE,135,1.1,1.8,0,0.00,,,0.00,WUHU216HW,2013-09-19 14:48:00,
2013-09-19 10:53:00,70.2,0.0,30.00,SSW,203,1.1,1.8,0,0.00,,,0.00,WUHU216HW,2013-09-19 14:53:00,
2013-09-19 10:58:00,70.9,0.0,30.00,SSW,203,1.3,1.8,0,0.00,,,0.00,WUHU216HW,2013-09-19 14:58:00,
2013-09-19 11:03:00,71.6,0.0,30.00,SW,225,0.0,1.8,0,0.00,,,0.00,WUHU216HW,2013-09-19 15:03:00,
2013-09-19 11:08:00,70.9,0.0,30.00,WSW,248,0.7,1.8,0,0.00,,,0.00,WUHU216HW,2013-09-19 15:08:00,
2013-09-19 11:13:00,71.3,0.0,30.00,NW,315,0.7,1.8,0,0.00,,,0.00,WUHU216HW,2013-09-19 15:13:00,
2013-09-19 11:18:00,71.1,0.0,30.00,NW,315,1.1,1.1,0,0.00,,,0.00,WUHU216HW,2013-09-19 15:18:00,
2013-09-19 11:23:00,71.5,0.0,30.00,NNW,338,0.4,1.8,0,0.00,,,0.00,WUHU216HW,2013-09-19 15:23:00,
2013-09-19 11:28:00,71.6,0.0,30.00,SSW,203,0.9,1.8,0,0.00,,,0.00,WUHU216HW,2013-09-19 15:28:00,
2013-09-19 11:33:00,72.4,0.0,30.00,North,0,1.3,1.6,0,0.00,,,0.00,WUHU216HW,2013-09-19 15:33:00,
2013-09-19 11:38:00,71.6,0.0,29.99,South,180,1.8,1.8,0,0.00,,,0.00,WUHU216HW,2013-09-19 15:38:00,
2013-09-19 11:43:00,72.0,0.0,29.99,NE,45,1.3,1.8,0,0.00,,,0.00,WUHU216HW,2013-09-19 15:43:00,
2013-09-19 11:48:00,72.9,0.0,29.99,SW,225,0.7,2.5,0,0.00,,,0.00,WUHU216HW,2013-09-19 15:48:00,
2013-09-19 11:54:00,73.4,0.0,29.99,WSW,248,2.7,2.7,0,0.00,,,0.00,WUHU216HW,2013-09-19 15:54:00,
2013-09-19 11:59:00,74.5,0.0,29.99,ESE,113,1.8,2.7,0,0.00,,,0.00,WUHU216HW,2013-09-19 15:59:00,
2013-09-19 12:04:00,75.2,0.0,29.99,SW,225,2.0,2.0,0,0.00,,,0.00,WUHU216HW,2013-09-19 16:04:00,
2013-09-19 12:09:00,75.8,0.0,29.99,SE,135,1.8,3.4,0,0.00,,,0.00,WUHU216HW,2013-09-19 16:09:00,
2013-09-19 12:14:00,76.0,0.0,29.99,South,180,1.8,3.4,0,0.00,,,0.00,WUHU216HW,2013-09-19 16:14:00,
2013-09-19 12:19:00,76.5,0.0,29.99,SW,225,0.4,1.8,0,0.00,,,0.00,WUHU216HW,2013-09-19 16:19:00,
2013-09-19 12:24:00,76.3,0.0,29.98,SSE,158,1.8,1.8,0,0.00,,,0.00,WUHU216HW,2013-09-19 16:24:00,
2013-09-19 12:29:00,77.0,0.0,29.98,SSW,203,0.4,3.4,0,0.00,,,0.00,WUHU216HW,2013-09-19 16:29:00,
2013-09-19 12:34:00,77.8,0.0,29.98,ENE,68,1.8,3.4,0,0.00,,,0.00,WUHU216HW,2013-09-19 16:34:00,
2013-09-19 12:39:00,76.9,0.0,29.98,NNW,338,0.9,1.8,0,0.00,,,0.00,WUHU216HW,2013-09-19 16:39:00,
2013-09-19 12:44:00,76.5,0.0,29.98,SSE,158,0.7,2.2,0,0.00,,,0.00,WUHU216HW,2013-09-19 16:44:00,
2013-09-19 12:49:00,76.9,0.0,29.98,SW,225,0.4,2.2,0,0.00,,,0.00,WUHU216HW,2013-09-19 16:49:00,
2013-09-19 12:54:00,77.2,0.0,29.98,SW,225,1.8,2.2,0,0.00,,,0.00,WUHU216HW,2013-09-19 16:54:00,
2013-09-19 12:59:00,77.9,0.0,29.98,SSW,203,1.1,2.5,0,0.00,,,0.00,WUHU216HW,2013-09-19 16:59:00,
2013-09-19 13:04:00,77.2,0.0,29.98,North,0,0.4,2.5,0,0.00,,,0.00,WUHU216HW,2013-09-19 17:04:00,
2013-09-19 13:09:00,76.7,0.0,29.98,NW,315,0.7,1.6,0,0.00,,,0.00,WUHU216HW,2013-09-19 17:09:00,
2013-09-19 13:14:00,76.3,0.0,29.97,North,0,1.1,1.6,0,0.00,,,0.00,WUHU216HW,2013-09-19 17:14:00,
2013-09-19 13:19:00,77.4,0.0,29.98,SE,135,0.7,1.8,0,0.00,,,0.00,WUHU216HW,2013-09-19 17:19:00,
2013-09-19 13:24:00,78.5,0.0,29.97,SSE,158,3.8,3.8,0,0.00,,,0.00,WUHU216HW,2013-09-19 17:24:00,
2013-09-19 13:29:00,78.3,0.0,29.97,SW,225,1.6,3.8,0,0.00,,,0.00,WUHU216HW,2013-09-19 17:29:00,
2013-09-19 13:34:00,78.5,0.0,29.97,SW,225,1.1,2.5,0,0.00,,,0.00,WUHU216HW,2013-09-19 17:34:00,
2013-09-19 13:39:00,78.7,0.0,29.97,SSW,203,1.1,2.5,0,0.00,,,0.00,WUHU216HW,2013-09-19 17:39:00,
2013-09-19 13:44:00,77.9,0.0,29.97,WSW,248,0.9,2.0,0,0.00,,,0.00,WUHU216HW,2013-09-19 17:44:00,
2013-09-19 13:49:00,77.8,0.0,29.97,SW,225,2.0,2.0,0,0.00,,,0.00,WUHU216HW,2013-09-19 17:49:00,
2013-09-19 13:54:00,77.8,0.0,29.96,NNE,23,0.7,2.0,0,0.00,,,0.00,WUHU216HW,2013-09-19 17:54:00,
2013-09-19 13:59:00,78.1,0.0,29.96,WNW,293,1.8,2.0,0,0.00,,,0.00,WUHU216HW,2013-09-19 17:59:00,
2013-09-19 14:04:00,78.1,0.0,29.96,NW,315,0.4,2.0,0,0.00,,,0.00,WUHU216HW,2013-09-19 18:04:00,
2013-09-19 14:09:00,78.3,0.0,29.96,SSE,158,0.2,2.5,0,0.00,,,0.00,WUHU216HW,2013-09-19 18:09:00,
2013-09-19 14:14:00,78.5,0.0,29.96,ESE,113,0.0,2.7,0,0.00,,,0.00,WUHU216HW,2013-09-19 18:14:00,
2013-09-19 14:19:00,78.3,0.0,29.95,SSE,158,0.9,2.7,0,0.00,,,0.00,WUHU216HW,2013-09-19 18:19:00,
2013-09-19 14:24:00,78.1,0.0,29.96,WSW,248,1.1,4.0,0,0.00,,,0.00,WUHU216HW,2013-09-19 18:24:00,
2013-09-19 14:29:00,77.9,0.0,29.95,NW,315,0.4,4.0,0,0.00,,,0.00,WUHU216HW,2013-09-19 18:29:00,
2013-09-19 14:34:00,78.1,0.0,29.95,WSW,248,2.5,2.5,0,0.00,,,0.00,WUHU216HW,2013-09-19 18:34:00,
2013-09-19 14:39:00,78.5,0.0,29.95,SSE,158,3.4,3.4,0,0.00,,,0.00,WUHU216HW,2013-09-19 18:39:00,
2013-09-19 14:44:00,78.7,0.0,29.95,SW,225,1.3,3.4,0,0.00,,,0.00,WUHU216HW,2013-09-19 18:44:00,
2013-09-19 14:49:00,78.1,0.0,29.95,East,90,0.0,2.7,0,0.00,,,0.00,WUHU216HW,2013-09-19 18:49:00,
2013-09-19 14:54:00,77.0,0.0,29.95,ENE,68,0.9,1.8,0,0.00,,,0.00,WUHU216HW,2013-09-19 18:54:00,
2013-09-19 14:59:00,76.1,0.0,29.94,NNW,338,0.0,1.8,0,0.00,,,0.00,WUHU216HW,2013-09-19 18:59:00,
2013-09-19 15:04:00,76.0,0.0,29.95,SSE,158,0.7,2.5,0,0.00,,,0.00,WUHU216HW,2013-09-19 19:04:00,
2013-09-19 15:09:00,76.0,0.0,29.94,South,180,2.5,2.5,0,0.00,,,0.00,WUHU216HW,2013-09-19 19:09:00,
2013-09-19 15:14:00,76.0,0.0,29.94,SSE,158,0.4,2.5,0,0.00,,,0.00,WUHU216HW,2013-09-19 19:14:00,
2013-09-19 15:19:00,75.4,0.0,29.94,WNW,293,0.7,1.6,0,0.00,,,0.00,WUHU216HW,2013-09-19 19:19:00,
2013-09-19 15:24:00,74.7,0.0,29.94,NNW,338,1.1,1.8,0,0.00,,,0.00,WUHU216HW,2013-09-19 19:24:00,
2013-09-19 15:29:00,74.2,0.0,29.94,West,270,1.1,1.8,0,0.00,,,0.00,WUHU216HW,2013-09-19 19:29:00,
2013-09-19 15:34:00,74.0,0.0,29.94,South,180,3.1,3.1,0,0.00,,,0.00,WUHU216HW,2013-09-19 19:34:00,
2013-09-19 15:39:00,74.2,0.0,29.94,SW,225,0.0,3.1,0,0.00,,,0.00,WUHU216HW,2013-09-19 19:39:00,
2013-09-19 15:44:00,73.8,0.0,29.94,SSE,158,2.2,2.9,0,0.00,,,0.00,WUHU216HW,2013-09-19 19:44:00,
2013-09-19 15:49:00,73.6,0.0,29.94,SSW,203,1.1,2.9,0,0.00,,,0.00,WUHU216HW,2013-09-19 19:49:00,
2013-09-19 15:54:00,73.3,0.0,29.93,ENE,68,1.6,2.7,0,0.00,,,0.00,WUHU216HW,2013-09-19 19:54:00,
2013-09-19 15:59:00,72.9,0.0,29.93,WSW,248,3.1,3.1,0,0.00,,,0.00,WUHU216HW,2013-09-19 19:59:00,
2013-09-19 16:04:00,72.7,0.0,29.93,SSE,158,0.9,3.1,0,0.00,,,0.00,WUHU216HW,2013-09-19 20:04:00,
2013-09-19 16:09:00,72.4,0.0,29.93,SSE,158,0.0,2.7,0,0.00,,,0.00,WUHU216HW,2013-09-19 20:09:00,
2013-09-19 16:14:00,72.4,0.0,29.93,SW,225,1.8,2.7,0,0.00,,,0.00,WUHU216HW,2013-09-19 20:14:00,
2013-09-19 16:19:00,72.0,0.0,29.93,SW,225,1.1,1.8,0,0.00,,,0.00,WUHU216HW,2013-09-19 20:19:00,
2013-09-19 16:24:00,71.6,0.0,29.93,SW,225,0.4,1.8,0,0.00,,,0.00,WUHU216HW,2013-09-19 20:24:00,
2013-09-19 16:29:00,71.5,0.0,29.93,WSW,248,0.0,1.1,0,0.00,,,0.00,WUHU216HW,2013-09-19 20:29:00,
2013-09-19 16:34:00,71.3,0.0,29.93,SSE,158,0.7,2.2,0,0.00,,,0.00,WUHU216HW,2013-09-19 20:34:00,
2013-09-19 16:39:00,71.1,0.0,29.93,SSE,158,0.0,2.2,0,0.00,,,0.00,WUHU216HW,2013-09-19 20:39:00,
2013-09-19 16:44:00,71.1,0.0,29.93,SSE,158,0.7,0.7,0,0.00,,,0.00,WUHU216HW,2013-09-19 20:44:00,
2013-09-19 16:49:00,70.9,0.0,29.93,SSW,203,0.4,1.6,0,0.00,,,0.00,WUHU216HW,2013-09-19 20:49:00,
2013-09-19 16:54:00,70.7,0.0,29.93,WSW,248,0.0,1.6,0,0.00,,,0.00,WUHU216HW,2013-09-19 20:54:00,
2013-09-19 16:59:00,70.6,0.0,29.93,WSW,248,0.0,0.7,0,0.00,,,0.00,WUHU216HW,2013-09-19 20:59:00,
2013-09-19 17:04:00,70.4,0.0,29.93,SSW,203,1.3,1.3,0,0.00,,,0.00,WUHU216HW,2013-09-19 21:04:00,
2013-09-19 17:09:00,70.2,0.0,29.93,SSW,203,0.0,1.3,0,0.00,,,0.00,WUHU216HW,2013-09-19 21:09:00,
2013-09-19 17:14:00,70.0,0.0,29.93,SSW,203,0.0,0.9,0,0.00,,,0.00,WUHU216HW,2013-09-19 21:14:00,
2013-09-19 17:19:00,69.7,0.0,29.93,SSW,203,0.0,0.9,0,0.00,,,0.00,WUHU216HW,2013-09-19 21:19:00,
2013-09-19 17:24:00,69.5,0.0,29.92,SSW,203,0.0,0.4,0,0.00,,,0.00,WUHU216HW,2013-09-19 21:24:00,
2013-09-19 17:29:00,69.3,0.0,29.93,SSW,203,0.0,0.2,0,0.00,,,0.00,WUHU216HW,2013-09-19 21:29:00,
2013-09-19 17:34:00,69.1,0.0,29.93,SSW,203,1.1,1.1,0,0.00,,,0.00,WUHU216HW,2013-09-19 21:34:00,
2013-09-19 17:39:00,68.9,0.0,29.92,SSW,203,1.1,1.1,0,0.00,,,0.00,WUHU216HW,2013-09-19 21:39:00,
2013-09-19 17:44:00,68.8,0.0,29.92,SW,225,0.2,1.8,0,0.00,,,0.00,WUHU216HW,2013-09-19 21:44:00,
2013-09-19 17:49:00,68.8,0.0,29.92,SW,225,0.0,1.8,0,0.00,,,0.00,WUHU216HW,2013-09-19 21:49:00,
2013-09-19 17:54:00,68.4,0.0,29.92,SW,225,0.2,1.1,0,0.00,,,0.00,WUHU216HW,2013-09-19 21:54:00,
2013-09-19 17:59:00,68.0,0.0,29.92,SW,225,0.4,1.1,0,0.00,,,0.00,WUHU216HW,2013-09-19 21:59:00,
2013-09-19 18:04:00,67.7,0.0,29.92,SW,225,0.0,1.1,0,0.00,,,0.00,WUHU216HW,2013-09-19 22:04:00,
2013-09-19 18:09:00,67.1,0.0,29.92,SW,225,0.0,0.7,0,0.00,,,0.00,WUHU216HW,2013-09-19 22:09:00,
2013-09-19 18:14:00,66.6,0.0,29.92,SW,225,0.0,0.0,0,0.00,,,0.00,WUHU216HW,2013-09-19 22:14:00,
2013-09-19 18:19:00,66.1,0.0,29.93,SW,225,0.0,0.0,0,0.00,,,0.00,WUHU216HW,2013-09-19 22:19:00,
2013-09-19 18:24:00,65.5,0.0,29.93,SW,225,0.0,0.0,0,0.00,,,0.00,WUHU216HW,2013-09-19 22:24:00,
2013-09-19 18:29:00,64.6,0.0,29.93,SW,225,0.0,0.0,0,0.00,,,0.00,WUHU216HW,2013-09-19 22:29:00,
2013-09-19 18:34:00,64.1,0.0,29.93,SW,225,0.0,0.0,0,0.00,,,0.00,WUHU216HW,2013-09-19 22:34:00,
2013-09-19 18:39:00,63.7,0.0,29.93,SW,225,0.0,0.0,0,0.00,,,0.00,WUHU216HW,2013-09-19 22:39:00,
2013-09-19 18:44:00,62.6,0.0,29.93,SW,225,0.0,0.0,0,0.00,,,0.00,WUHU216HW,2013-09-19 22:44:00,
2013-09-19 18:49:00,62.1,0.0,29.93,SW,225,0.0,0.0,0,0.00,,,0.00,WUHU216HW,2013-09-19 22:49:00,
2013-09-19 18:54:00,61.2,0.0,29.93,SW,225,0.0,0.0,0,0.00,,,0.00,WUHU216HW,2013-09-19 22:54:00,
2013-09-19 18:59:00,60.7,0.0,29.93,SW,225,0.0,0.0,0,0.00,,,0.00,WUHU216HW,2013-09-19 22:59:00,
2013-09-19 19:04:00,59.9,0.0,29.93,SW,225,0.0,0.0,0,0.00,,,0.00,WUHU216HW,2013-09-19 23:04:00,
2013-09-19 19:09:00,59.2,0.0,29.93,SW,225,0.0,0.0,0,0.00,,,0.00,WUHU216HW,2013-09-19 23:09:00,
2013-09-19 19:14:00,58.7,0.0,29.93,SW,225,0.0,0.0,0,0.00,,,0.00,WUHU216HW,2013-09-19 23:14:00,
2013-09-19 19:19:00,58.0,0.0,29.93,SW,225,0.0,0.0,0,0.00,,,0.00,WUHU216HW,2013-09-19 23:19:00,
2013-09-19 19:24:00,57.6,0.0,29.94,SW,225,0.0,0.0,0,0.00,,,0.00,WUHU216HW,2013-09-19 23:24:00,
2013-09-19 19:29:00,56.9,0.0,29.93,SW,225,0.0,0.0,0,0.00,,,0.00,WUHU216HW,2013-09-19 23:29:00,
2013-09-19 19:34:00,56.5,0.0,29.93,SW,225,0.0,0.0,0,0.00,,,0.00,WUHU216HW,2013-09-19 23:34:00,
2013-09-19 19:39:00,56.0,0.0,29.93,SW,225,0.0,0.0,0,0.00,,,0.00,WUHU216HW,2013-09-19 23:39:00,
2013-09-19 19:44:00,55.6,0.0,29.94,SW,225,0.0,0.0,0,0.00,,,0.00,WUHU216HW,2013-09-19 23:44:00,
2013-09-19 19:49:00,55.3,0.0,29.94,SW,225,0.0,0.0,0,0.00,,,0.00,WUHU216HW,2013-09-19 23:49:00,
2013-09-19 19:54:00,54.9,0.0,29.95,SW,225,0.0,0.0,0,0.00,,,0.00,WUHU216HW,2013-09-19 23:54:00,
2013-09-19 19:59:00,54.4,0.0,29.95,SW,225,0.0,0.0,0,0.00,,,0.00,WUHU216HW,2013-09-19 23:59:00,
2013-09-19 20:04:00,54.0,0.0,29.94,SW,225,0.0,0.0,0,0.00,,,0.00,WUHU216HW,2013-09-20 00:04:00,
2013-09-19 20:09:00,53.6,0.0,29.95,SW,225,0.0,0.0,0,0.00,,,0.00,WUHU216HW,2013-09-20 00:09:00,
2013-09-19 20:14:00,53.5,0.0,29.94,SW,225,0.0,0.0,0,0.00,,,0.00,WUHU216HW,2013-09-20 00:14:00,
2013-09-19 20:20:00,53.3,0.0,29.95,SW,225,0.0,0.0,0,0.00,,,0.00,WUHU216HW,2013-09-20 00:20:00,
2013-09-19 20:25:00,52.9,0.0,29.95,SW,225,0.0,0.0,0,0.00,,,0.00,WUHU216HW,2013-09-20 00:25:00,
2013-09-19 20:30:00,52.7,0.0,29.95,SW,225,0.0,0.0,0,0.00,,,0.00,WUHU216HW,2013-09-20 00:30:00,
2013-09-19 20:35:00,52.6,0.0,29.95,SW,225,0.0,0.0,0,0.00,,,0.00,WUHU216HW,2013-09-20 00:35:00,
2013-09-19 20:40:00,52.2,0.0,29.95,SW,225,0.0,0.0,0,0.00,,,0.00,WUHU216HW,2013-09-20 00:40:00,
2013-09-19 20:45:00,52.2,0.0,29.95,SW,225,0.0,0.0,0,0.00,,,0.00,WUHU216HW,2013-09-20 00:45:00,
2013-09-19 20:50:00,51.8,0.0,29.95,SW,225,0.0,0.0,0,0.00,,,0.00,WUHU216HW,2013-09-20 00:50:00,
2013-09-19 20:55:00,51.7,0.0,29.95,SW,225,0.0,0.0,0,0.00,,,0.00,WUHU216HW,2013-09-20 00:55:00,
2013-09-19 21:00:00,51.5,0.0,29.95,SW,225,0.0,0.0,0,0.00,,,0.00,WUHU216HW,2013-09-20 01:00:00,
2013-09-19 21:05:00,51.3,0.0,29.95,SW,225,0.0,0.0,0,0.00,,,0.00,WUHU216HW,2013-09-20 01:05:00,
2013-09-19 21:10:00,51.1,0.0,29.95,SW,225,0.0,0.0,0,0.00,,,0.00,WUHU216HW,2013-09-20 01:10:00,
2013-09-19 21:15:00,51.1,0.0,29.95,SW,225,0.0,0.0,0,0.00,,,0.00,WUHU216HW,2013-09-20 01:15:00,
2013-09-19 21:20:00,50.8,0.0,29.95,SW,225,0.0,0.0,0,0.00,,,0.00,WUHU216HW,2013-09-20 01:20:00,
2013-09-19 21:25:00,50.8,0.0,29.95,SW,225,0.0,0.0,0,0.00,,,0.00,WUHU216HW,2013-09-20 01:25:00,
2013-09-19 21:30:00,50.8,0.0,29.95,SW,225,0.0,0.0,0,0.00,,,0.00,WUHU216HW,2013-09-20 01:30:00,
2013-09-19 21:35:00,50.6,0.0,29.95,SW,225,0.0,0.0,0,0.00,,,0.00,WUHU216HW,2013-09-20 01:35:00,
2013-09-19 21:40:00,50.4,0.0,29.95,SW,225,0.0,0.0,0,0.00,,,0.00,WUHU216HW,2013-09-20 01:40:00,
2013-09-19 21:45:00,50.0,0.0,29.95,SW,225,0.0,0.0,0,0.00,,,0.00,WUHU216HW,2013-09-20 01:45:00,
2013-09-19 21:50:00,50.0,0.0,29.95,SW,225,0.0,0.0,0,0.00,,,0.00,WUHU216HW,2013-09-20 01:50:00,
2013-09-19 21:55:00,50.0,0.0,29.95,SW,225,0.0,0.0,0,0.00,,,0.00,WUHU216HW,2013-09-20 01:55:00,
2013-09-19 22:00:00,50.0,0.0,29.95,SW,225,0.0,0.0,0,0.00,,,0.00,WUHU216HW,2013-09-20 02:00:00,
2013-09-19 22:05:00,49.7,0.0,29.95,SW,225,0.0,0.0,0,0.00,,,0.00,WUHU216HW,2013-09-20 02:05:00,
2013-09-19 22:10:00,49.7,0.0,29.95,SW,225,0.0,0.0,0,0.00,,,0.00,WUHU216HW,2013-09-20 02:10:00,
2013-09-19 22:15:00,49.7,0.0,29.95,SW,225,0.0,0.0,0,0.00,,,0.00,WUHU216HW,2013-09-20 02:15:00,
2013-09-19 22:20:00,49.5,0.0,29.95,SW,225,0.0,0.0,0,0.00,,,0.00,WUHU216HW,2013-09-20 02:20:00,
2013-09-19 22:25:00,49.3,0.0,29.95,SW,225,0.0,0.0,0,0.00,,,0.00,WUHU216HW,2013-09-20 02:25:00,
2013-09-19 22:30:00,49.3,0.0,29.94,SW,225,0.0,0.0,0,0.00,,,0.00,WUHU216HW,2013-09-20 02:30:00,
2013-09-19 22:35:00,49.3,0.0,29.94,SW,225,0.0,0.0,0,0.00,,,0.00,WUHU216HW,2013-09-20 02:35:00,
2013-09-19 22:40:00,49.1,0.0,29.94,SW,225,0.0,0.0,0,0.00,,,0.00,WUHU216HW,2013-09-20 02:40:00,
2013-09-19 22:45:00,49.0,0.0,29.94,SW,225,0.0,0.0,0,0.00,,,0.00,WUHU216HW,2013-09-20 02:45:00,
2013-09-19 22:50:00,48.8,0.0,29.94,SW,225,0.0,0.0,0,0.00,,,0.00,WUHU216HW,2013-09-20 02:50:00,
2013-09-19 22:55:00,48.6,0.0,29.94,SW,225,0.0,0.0,0,0.00,,,0.00,WUHU216HW,2013-09-20 02:55:00,
2013-09-19 23:00:00,48.6,0.0,29.94,SW,225,0.0,0.0,0,0.00,,,0.00,WUHU216HW,2013-09-20 03:00:00,
2013-09-19 23:05:00,48.2,0.0,29.94,SW,225,0.0,0.0,0,0.00,,,0.00,WUHU216HW,2013-09-20 03:05:00,
2013-09-19 23:10:00,48.2,0.0,29.94,SW,225,0.0,0.0,0,0.00,,,0.00,WUHU216HW,2013-09-20 03:10:00,
2013-09-19 23:15:00,48.1,0.0,29.94,SW,225,0.0,0.0,0,0.00,,,0.00,WUHU216HW,2013-09-20 03:15:00,
2013-09-19 23:20:00,47.9,0.0,29.94,SW,225,0.0,0.0,0,0.00,,,0.00,WUHU216HW,2013-09-20 03:20:00,
2013-09-19 23:25:00,47.9,0.0,29.94,SW,225,0.0,0.0,0,0.00,,,0.00,WUHU216HW,2013-09-20 03:25:00,
2013-09-19 23:30:00,47.7,0.0,29.94,SW,225,0.0,0.0,0,0.00,,,0.00,WUHU216HW,2013-09-20 03:30:00,
2013-09-19 23:35:00,47.5,0.0,29.93,SW,225,0.0,0.0,0,0.00,,,0.00,WUHU216HW,2013-09-20 03:35:00,
2013-09-19 23:40:00,47.5,0.0,29.93,SW,225,0.0,0.0,0,0.00,,,0.00,WUHU216HW,2013-09-20 03:40:00,
2013-09-19 23:45:00,47.5,0.0,29.93,SW,225,0.0,0.0,0,0.00,,,0.00,WUHU216HW,2013-09-20 03:45:00,
2013-09-19 23:50:00,47.5,0.0,29.93,SW,225,0.0,0.0,0,0.00,,,0.00,WUHU216HW,2013-09-20 03:50:00,
2013-09-19 23:55:00,47.3,0.0,29.93,SW,225,0.0,0.0,0,0.00,,,0.00,WUHU216HW,2013-09-20 03:55:00,